Theta_e
352 354 354 354 355 355 355 356 355 355 354 354 353 352 353 354 353 354 359 358 360 360 362 363 364 364 363 364 362 364 366 365 366 367 368 367 367 367 367 368 366 364 366 365 364 365 366 364 364 365 367 364 363 362 361 362 365 363 363 362 359 362 360 358 353 353 359 364 359 358 361 364 362 367 365 363 365 368 366 371 373 367 369 368 368
352 354 354 354 354 354 354 354 355 355 353 353 353 352 352 352 354 356 355 358 360 358 361 361 363 363 362 363 365 364 367 368 365 365 366 366 366 363 364 367 367 365 366 365 366 364 365 365 364 365 368 364 362 360 360 358 359 358 361 361 359 361 364 358 356 355 354 360 362 366 363 365 360 369 365 363 364 369 367 369 366 365 366 369 370
351 354 354 354 354 354 354 354 354 354 352 352 351 350 351 352 353 352 351 353 358 358 359 359 362 364 362 363 365 365 367 365 365 365 365 366 365 363 362 364 364 363 363 364 363 365 364 365 363 364 364 363 363 361 359 360 359 360 359 361 361 361 364 364 359 355 354 356 363 359 361 365 363 364 367 366 369 371 370 366 364 362 365 368 369
350 353 353 353 353 353 354 353 352 352 351 351 351 351 350 350 352 350 350 350 352 357 359 359 362 363 361 363 364 364 365 364 364 365 365 365 365 365 365 365 364 363 362 362 362 363 363 363 362 363 364 363 363 362 362 362 362 363 362 363 364 362 364 366 364 360 358 355 360 362 363 363 363 366 366 368 367 369 367 369 366 364 364 365 368
347 350 351 351 351 352 352 352 351 351 350 350 350 351 351 350 350 350 349 349 350 353 357 360 361 362 358 360 361 362 362 363 363 362 363 364 365 363 364 365 365 364 364 364 363 364 363 362 362 364 366 363 363 363 362 363 363 361 361 363 363 363 364 364 364 365 361 358 358 363 367 364 365 367 368 364 365 367 370 369 366 365 367 363 365
347 348 349 349 351 351 352 351 351 351 350 350 350 350 351 350 350 350 350 349 350 350 353 355 357 359 360 359 360 362 363 363 363 362 361 361 363 363 363 365 363 364 364 363 364 365 363 364 363 364 363 362 361 362 365 364 364 362 361 362 363 364 364 364 365 364 363 360 361 358 363 362 362 364 367 366 362 361 364 366 369 367 368 363 363
347 347 349 349 350 351 351 351 352 351 351 351 351 351 350 350 350 349 350 349 349 349 350 353 355 356 359 359 358 360 361 361 363 363 362 362 362 363 361 362 362 363 363 362 361 363 363 363 364 364 364 364 362 361 363 365 363 363 364 364 364 364 362 361 363 362 361 360 359 360 360 363 364 359 366 369 366 364 362 361 361 365 367 366 364
346 347 349 349 350 350 351 353 353 353 353 354 353 351 351 350 351 351 351 349 348 349 349 350 354 355 356 357 358 360 361 360 363 363 363 361 361 361 361 360 360 361 361 362 361 360 361 362 360 362 364 366 365 364 365 363 365 364 364 365 364 363 360 359 361 359 359 358 357 356 358 360 362 365 366 367 365 366 366 361 358 359 362 366 366
346 348 348 349 351 353 353 353 354 354 354 354 354 352 352 352 352 352 352 350 349 349 349 349 351 352 354 355 356 357 356 357 358 360 361 361 361 359 360 360 359 359 360 359 360 361 361 361 361 361 364 366 362 361 361 363 363 363 366 366 365 363 362 361 360 360 359 358 357 360 359 359 360 362 360 360 360 358 363 364 361 362 363 363 367
347 347 347 349 352 354 355 355 355 355 355 355 356 354 352 352 351 352 351 351 351 351 350 350 349 350 351 354 355 354 354 355 352 341 345 359 361 358 359 361 360 359 359 359 358 359 360 359 358 362 359 360 357 351 348 349 352 358 363 368 366 364 362 361 360 359 359 357 355 356 354 354 355 360 360 360 363 366 363 365 360 360 363 363 366
347 348 348 350 352 355 356 356 356 355 356 356 356 355 354 352 352 352 352 352 351 353 351 349 347 347 348 350 351 351 352 351 339 333 333 337 354 360 359 360 361 360 358 360 359 356 358 360 361 362 363 360 361 351 348 345 345 346 348 354 362 365 363 360 359 360 358 357 357 357 355 355 357 360 360 359 360 361 360 362 359 359 359 356 353
342 349 351 351 354 356 355 356 356 355 356 356 356 356 355 353 353 353 351 350 353 352 350 349 350 348 347 347 348 349 350 341 331 330 330 330 337 356 357 356 356 357 357 356 357 357 356 356 359 359 362 363 363 365 358 347 342 342 342 343 347 351 353 361 362 360 361 358 357 357 356 356 359 362 358 357 360 361 364 361 361 359 358 357 358
343 348 352 354 353 355 356 356 356 356 356 356 357 357 356 354 353 351 349 350 350 351 351 350 350 349 348 348 346 347 348 337 329 327 328 328 328 340 353 355 354 354 355 356 356 357 358 358 357 358 358 359 361 362 366 368 348 340 341 342 344 343 340 340 346 361 362 362 361 358 359 360 360 361 362 361 365 361 361 359 361 361 361 359 359
342 344 348 354 357 356 356 355 355 356 357 357 357 356 354 354 352 352 350 351 351 350 349 350 350 351 350 349 350 349 348 337 327 325 325 325 326 331 352 354 355 353 354 354 355 356 359 359 357 358 360 362 364 362 363 365 367 366 361 359 360 358 345 338 337 339 349 360 362 361 364 367 362 365 367 368 364 360 359 358 361 361 361 360 364
340 341 343 345 350 357 357 356 356 357 358 358 357 356 354 355 353 352 351 350 351 350 348 348 349 350 349 349 349 348 347 333 325 323 322 322 324 328 349 353 354 354 355 356 357 356 358 358 359 357 360 362 364 363 363 364 365 364 365 363 363 363 364 362 359 358 358 357 360 362 365 367 368 369 369 370 368 366 364 364 363 363 364 364 364
335 337 339 341 343 344 349 355 356 357 357 357 356 355 355 355 355 353 352 350 351 351 351 349 348 348 348 348 346 346 347 329 323 321 320 320 323 339 347 352 353 353 355 357 358 359 358 358 360 359 359 361 357 344 351 363 363 363 363 363 363 363 362 360 348 350 362 363 363 362 362 362 353 367 367 365 367 369 366 363 364 363 359 356 355
332 332 333 335 338 341 343 345 352 355 356 356 355 354 355 355 355 356 352 351 349 349 350 349 350 349 348 348 347 346 346 335 321 319 319 319 324 343 348 350 352 353 353 355 357 358 358 359 360 358 358 361 350 335 335 348 359 360 360 360 360 359 360 363 346 337 337 336 336 338 337 336 335 332 331 333 355 359 362 359 357 357 356 353 355
328 329 330 330 332 336 341 344 346 349 355 355 355 355 354 355 355 355 352 351 349 350 351 350 351 351 349 348 347 347 346 338 320 317 316 317 327 345 349 349 350 352 354 355 357 358 358 354 360 360 358 359 341 332 331 345 358 358 359 358 357 358 359 360 359 357 334 331 332 332 333 333 333 332 332 331 330 344 359 355 357 357 355 356 351
325 326 328 328 330 333 336 340 344 345 348 354 354 354 354 354 355 355 353 353 352 353 352 351 351 351 350 349 344 345 347 340 320 317 315 315 326 346 349 349 348 349 350 351 355 355 357 354 353 351 354 352 335 330 328 341 357 358 359 359 356 357 358 361 361 360 362 358 357 354 352 344 349 353 355 339 336 343 355 359 359 357 356 354 353
324 326 328 330 331 332 334 337 341 343 345 347 354 356 355 354 354 353 353 353 352 352 352 352 350 351 351 350 349 348 348 350 345 316 315 313 316 343 349 347 346 347 349 348 350 353 354 356 353 333 330 331 329 326 324 326 354 359 360 358 357 356 361 362 363 362 364 363 363 363 363 364 364 364 363 363 354 351 354 358 360 360 359 357 355
325 327 329 329 329 330 334 336 338 341 344 345 347 352 356 355 354 354 352 352 352 352 351 352 351 351 351 352 351 350 350 350 350 317 313 312 312 321 346 348 348 348 349 350 349 349 351 354 354 340 325 324 323 321 319 318 331 358 361 360 360 360 357 362 362 363 361 363 363 362 362 364 364 364 363 365 362 359 355 357 361 362 361 357 355
325 327 328 329 330 331 335 338 340 341 343 346 349 351 355 355 356 355 354 354 354 353 354 353 351 351 353 352 353 352 350 341 352 324 314 311 311 311 339 348 347 349 349 350 349 349 350 352 357 345 326 322 320 319 317 318 319 349 359 336 335 334 358 361 362 362 362 361 360 359 360 360 360 361 360 361 361 361 362 361 361 362 363 363 360
325 326 328 329 330 331 335 339 341 343 343 344 345 348 353 354 356 358 358 357 356 355 355 355 354 352 354 355 355 355 355 354 332 346 317 311 310 310 317 334 330 351 347 348 349 349 352 354 356 343 326 318 316 316 317 317 320 336 328 327 327 330 342 356 359 359 359 358 358 358 359 360 360 359 360 361 362 365 364 365 365 365 366 366 367
325 324 326 328 329 331 332 336 339 340 342 344 344 345 348 353 357 358 357 356 356 356 356 357 356 354 353 354 355 356 359 358 340 328 335 312 311 309 311 315 325 343 348 348 350 351 353 355 353 332 322 315 313 315 317 318 332 322 319 322 326 332 350 355 354 357 356 355 354 355 356 358 360 361 361 364 365 368 367 366 367 367 368 367 369
324 324 325 327 329 330 331 333 335 336 337 340 343 345 347 351 354 358 358 357 356 357 357 358 357 356 356 355 357 358 359 360 361 344 324 320 312 310 310 312 314 320 344 349 352 352 339 330 328 323 321 317 315 315 317 317 315 319 319 320 331 346 351 353 354 357 354 353 353 355 356 358 361 364 368 369 370 370 370 367 368 369 369 369 368
323 324 325 327 328 330 330 331 333 335 337 338 341 347 349 351 354 356 357 355 357 358 357 357 357 357 356 357 358 359 361 362 361 362 338 329 320 313 313 312 315 316 327 343 335 332 329 325 323 322 322 326 337 341 344 346 323 318 320 325 341 347 351 353 355 354 353 353 353 353 356 360 362 366 370 370 368 364 363 363 361 361 362 360 359
322 323 324 326 328 329 330 330 332 334 335 336 338 342 348 350 352 353 356 356 356 356 357 357 356 355 355 356 358 359 360 361 362 362 362 354 346 336 323 323 315 315 325 337 334 343 343 338 343 332 333 332 333 334 336 339 341 336 335 337 343 347 350 353 355 356 355 356 356 358 360 362 366 367 364 363 362 361 363 361 359 356 358 358 356
321 322 323 325 326 327 328 330 331 332 333 335 336 339 343 347 348 349 351 355 356 355 357 356 355 356 356 357 358 359 359 361 361 361 361 360 356 350 341 337 337 333 334 338 344 347 349 339 338 350 351 351 349 349 350 352 351 349 349 347 347 348 349 349 352 358 359 360 359 359 359 360 359 360 361 361 359 359 362 357 356 356 356 356 353
321 322 322 324 325 327 328 330 331 332 333 335 336 338 340 344 346 349 353 356 358 358 356 357 359 361 360 359 359 360 360 360 362 340 362 338 355 359 353 347 345 343 333 326 346 349 351 352 353 352 352 350 350 352 352 353 353 354 355 354 353 353 353 352 352 353 355 356 357 358 357 359 360 361 360 359 357 358 361 360 360 357 357 354 350
320 321 323 323 324 326 329 329 331 332 333 333 335 338 336 325 335 347 349 340 331 322 320 347 358 362 360 362 364 361 361 363 336 325 321 321 319 324 328 327 325 337 329 320 334 347 349 350 350 350 351 351 350 351 352 354 354 354 355 343 352 354 354 354 355 356 359 357 358 358 358 358 358 359 358 356 358 358 359 349 356 357 353 348 346
319 319 321 322 323 324 326 327 329 331 332 333 334 335 337 340 316 313 322 329 325 320 317 315 313 315 336 355 355 334 332 327 321 322 315 313 314 312 313 314 313 315 317 333 337 342 348 348 348 349 350 352 352 351 353 353 353 354 355 355 355 354 351 354 356 354 355 356 357 359 358 357 356 356 354 354 356 356 357 353 353 355 351 348 346
317 318 319 320 321 324 325 327 328 329 331 333 334 334 336 338 342 322 312 314 315 312 312 312 313 315 314 321 338 361 336 318 316 316 310 310 310 310 309 309 308 309 309 318 342 343 345 348 349 350 351 351 351 352 353 354 355 356 356 355 355 355 355 355 356 359 357 357 356 355 356 354 354 354 354 353 352 354 354 349 350 350 349 348 347
318 318 319 321 322 324 325 327 328 329 329 332 334 337 338 340 339 341 342 313 310 311 311 309 309 309 310 309 308 314 324 328 316 310 307 306 307 308 308 307 307 304 308 331 344 347 348 348 350 353 352 351 353 353 354 355 355 357 357 357 356 357 358 360 359 360 357 357 357 354 353 353 352 352 350 353 354 352 353 350 350 350 348 346 345
319 319 320 321 322 323 324 326 328 329 331 334 336 338 338 340 340 340 340 342 344 325 309 307 306 307 305 305 308 307 306 307 307 306 305 306 305 305 306 319 303 301 317 343 344 348 350 350 350 352 353 354 353 353 354 355 355 357 358 358 358 360 363 365 362 357 353 353 353 352 352 353 352 352 353 354 354 351 351 348 348 347 346 345 343
319 322 325 325 324 325 328 330 332 333 334 334 334 333 334 335 337 337 338 337 339 341 346 354 324 304 320 316 308 304 305 305 307 308 303 304 304 302 307 334 334 330 327 338 347 349 349 350 351 351 353 354 354 354 355 357 357 357 357 358 358 359 360 360 356 356 354 353 352 352 351 351 354 352 352 353 352 348 349 348 345 345 346 344 342
319 319 320 321 322 324 326 329 332 333 332 332 332 331 332 332 333 334 334 336 337 338 341 347 353 335 311 306 310 308 305 302 303 305 305 303 302 307 337 343 345 343 339 338 342 346 350 352 352 354 355 354 356 356 357 356 357 357 358 357 355 358 358 359 355 354 355 354 353 352 347 352 352 350 351 351 350 349 349 347 345 344 344 344 344
319 319 320 322 323 325 327 329 330 330 328 328 328 328 329 330 331 333 335 336 336 337 340 346 349 353 337 334 322 308 304 303 301 303 302 301 301 323 346 349 349 350 346 344 343 345 348 351 353 355 356 355 356 356 357 357 358 359 349 358 359 359 358 359 357 353 354 352 353 354 353 352 352 352 350 348 347 348 348 346 344 342 341 340 335
320 320 321 323 324 326 327 327 328 326 327 327 327 328 328 330 332 333 335 336 337 339 341 344 341 348 350 354 338 337 323 302 300 301 300 300 310 330 344 350 352 353 351 350 349 348 349 352 354 355 355 356 356 356 357 358 358 358 358 360 360 359 347 356 351 355 355 354 354 355 352 351 352 351 347 348 347 346 346 345 343 343 340 336 338
321 320 320 320 322 324 324 324 325 325 325 326 326 327 328 329 331 334 335 337 338 340 340 343 346 348 351 353 344 333 325 332 334 336 330 328 328 334 342 348 351 353 354 355 353 351 352 352 353 355 356 357 356 358 358 358 359 359 359 359 359 360 357 356 355 354 353 353 352 352 351 351 351 351 350 348 347 347 347 345 344 343 342 341 341
321 322 323 321 323 323 323 323 324 324 324 324 325 327 328 329 331 332 334 336 338 339 340 342 344 348 352 354 345 338 341 346 346 349 346 340 337 338 342 346 350 353 354 357 357 355 352 353 355 357 357 359 360 358 357 357 357 358 360 358 358 358 359 358 356 355 355 353 352 352 351 350 349 349 349 348 347 347 346 344 343 339 341 343 342
320 322 324 322 321 321 322 322 321 321 322 323 324 324 324 326 328 329 331 332 335 339 341 341 344 348 350 353 323 322 343 345 348 348 349 349 345 342 343 346 349 353 355 355 359 358 356 355 356 357 357 358 357 356 356 355 355 354 354 353 354 352 354 355 355 357 356 351 350 350 350 348 347 347 345 346 337 341 344 343 341 339 339 338 340
320 320 320 320 320 320 319 320 320 320 320 320 320 320 322 324 325 327 329 330 332 335 338 341 344 347 335 319 311 308 335 346 348 348 351 350 348 346 346 348 350 353 355 357 360 361 359 356 356 355 354 354 353 353 352 351 351 351 351 351 351 351 351 351 353 355 352 348 346 346 346 346 345 345 346 334 344 344 343 341 340 338 337 336 334
321 320 319 319 319 318 318 317 317 316 316 317 318 319 320 321 322 324 325 327 328 331 333 337 341 345 341 315 315 305 331 342 343 345 348 349 351 349 348 349 349 349 350 350 348 351 354 353 353 351 350 351 352 351 348 349 350 350 350 350 350 349 349 349 351 351 351 348 344 343 345 344 343 343 344 341 342 340 337 334 333 333 330 330 328
319 318 317 316 316 316 316 315 315 315 314 315 316 317 317 318 320 321 322 324 327 330 333 336 339 343 344 325 314 321 334 338 342 343 341 333 329 325 321 320 321 325 326 326 328 330 337 342 343 343 344 342 338 339 345 348 350 349 349 348 346 343 347 347 346 346 347 346 343 342 343 342 341 341 339 338 337 334 333 333 332 330 329 328 328
316 315 314 313 313 313 313 314 314 313 314 314 314 314 315 316 316 317 319 321 323 326 330 332 334 337 339 336 332 332 335 335 327 322 318 316 314 312 311 310 310 309 310 311 313 316 321 326 329 329 327 323 320 321 323 323 327 339 347 347 345 343 343 341 340 342 343 343 341 338 336 335 336 335 334 336 337 337 334 333 330 325 326 327 327
314 314 313 312 311 311 311 311 312 312 312 312 312 312 312 313 314 315 316 317 317 317 317 317 316 315 314 312 311 309 309 309 309 308 307 306 306 306 307 307 308 308 308 308 309 309 310 311 313 315 315 314 312 312 311 312 313 315 317 322 329 336 337 336 337 338 339 339 337 334 332 334 336 336 334 336 334 335 334 333 332 329 328 325 324
312 312 312 311 309 310 310 310 310 310 310 310 311 310 310 310 311 311 312 311 311 310 309 309 308 307 306 306 305 305 304 303 303 303 302 303 303 303 304 305 305 305 305 305 306 306 307 308 309 309 310 309 309 309 309 310 310 311 314 315 317 320 324 326 327 327 328 329 330 329 329 330 329 330 328 329 329 329 329 328 328 326 323 320 318
311 312 311 310 309 309 308 308 308 309 309 309 310 309 309 308 308 308 308 308 307 306 305 304 304 304 304 303 303 303 303 302 302 302 301 301 301 302 302 303 303 303 304 303 304 304 305 305 306 308 308 308 308 307 308 310 311 310 311 312 315 318 319 317 325 325 325 325 325 324 324 323 323 323 322 324 324 322 320 319 318 318 318 316 316
311 311 310 310 309 307 307 307 308 307 307 308 308 307 307 306 305 305 305 304 304 304 303 302 302 302 302 302 301 301 301 301 299 299 299 299 300 300 301 301 302 302 302 301 302 302 303 303 304 304 305 305 305 305 306 307 307 308 308 309 308 303 301 305 313 318 313 319 319 318 317 316 315 315 315 315 315 316 316 316 315 314 314 314 314
308 309 308 308 308 307 307 307 306 307 307 306 306 305 305 304 304 303 303 302 302 302 301 301 301 301 300 300 300 300 299 299 298 298 298 298 299 298 299 299 299 299 299 300 301 301 302 302 303 302 302 302 302 303 303 303 303 303 303 302 297 297 298 301 304 307 315 317 316 314 313 311 312 312 313 313 313 312 311 311 311 311 311 311 310
308 307 307 306 306 306 306 305 305 306 305 305 304 303 303 302 301 301 300 300 299 299 299 299 299 299 299 299 299 298 297 297 297 297 297 296 297 297 297 296 297 296 297 298 299 300 300 301 301 301 301 302 301 301 301 300 299 298 296 294 293 294 295 300 307 297 302 308 316 314 311 310 310 310 311 312 312 311 311 311 311 310 310 309 309
Wind_Speed
14 13 12 13 13 14 14 12 13 11 11 11 11 10 10 10 10 9 7 8 8 8 8 8 8 7 8 7 8 7 7 7 7 6 6 6 6 6 6 5 6 5 5 6 5 5 5 5 5 5 4 5 4 4 4 4 3 3 3 3 4 3 3 3 5 7 5 3 4 5 4 4 4 3 5 6 6 6 7 6 5 5 4 4 3
13 12 12 12 14 14 14 13 13 12 13 12 12 11 10 10 9 8 9 9 9 9 9 8 8 8 8 8 7 7 7 8 8 7 7 7 7 6 6 6 6 6 6 6 6 5 6 6 7 6 5 6 6 6 5 5 4 4 4 4 4 4 4 4 5 6 8 4 4 3 4 2 5 2 5 6 6 6 7 6 5 4 4 3 4
12 12 12 12 14 13 13 13 13 14 14 12 13 13 11 11 10 10 11 10 9 9 9 9 9 8 8 7 7 8 7 8 7 7 7 8 8 8 7 7 7 7 7 8 8 7 7 7 8 7 5 6 6 6 6 6 5 5 5 4 5 5 4 4 4 6 7 7 5 5 3 3 4 5 5 4 4 3 5 6 5 4 3 4 3
9 10 11 12 13 13 13 12 14 14 14 13 14 14 12 11 10 11 11 10 10 10 9 10 9 9 9 8 8 8 8 8 8 8 8 8 8 8 8 8 8 8 9 8 8 8 8 8 8 7 6 6 7 6 5 5 5 5 6 5 5 5 4 4 5 5 6 7 6 5 4 5 4 4 4 4 4 3 4 4 4 4 4 3 2
13 11 12 13 13 13 14 14 14 15 15 13 15 14 13 11 10 12 11 11 11 10 9 9 9 9 10 10 9 9 9 8 9 9 8 8 9 9 9 8 9 9 9 9 8 9 9 9 8 7 7 7 7 7 6 6 5 6 6 5 5 5 4 4 5 5 5 7 7 5 4 4 4 4 3 4 4 3 2 3 4 3 3 3 2
14 14 14 15 14 15 14 14 15 15 15 14 15 14 13 12 11 11 12 12 11 11 10 9 9 11 11 11 10 10 9 9 9 10 10 9 8 9 8 9 9 9 9 9 9 9 9 10 9 8 8 8 8 7 6 7 6 6 7 6 5 4 5 5 5 5 6 7 7 8 5 5 4 4 3 3 5 4 2 2 2 2 2 3 2
12 13 14 16 14 15 15 15 14 14 14 14 13 13 13 13 13 12 12 13 12 12 11 11 10 11 11 10 11 10 10 10 9 9 10 9 9 9 9 9 9 9 9 10 10 10 10 10 9 9 9 9 9 8 7 7 6 7 7 6 5 5 5 5 5 6 6 7 7 7 6 5 3 5 2 3 5 4 3 2 2 1 2 2 2
13 13 14 13 14 15 15 14 14 13 13 12 13 13 13 12 13 11 11 12 13 13 13 13 12 11 11 11 11 10 10 10 10 10 10 10 10 10 10 10 10 10 10 10 10 10 10 10 11 10 10 9 9 9 8 7 6 7 6 6 5 6 6 6 5 5 6 6 6 6 5 5 5 4 4 4 4 3 2 2 4 3 2 2 2
14 15 14 14 14 13 12 12 11 12 12 11 12 12 12 12 11 11 11 11 11 12 13 13 12 12 12 11 11 10 10 10 9 10 10 11 10 11 11 11 11 10 10 11 10 10 10 10 11 11 10 10 11 9 9 6 6 7 7 6 6 6 6 6 6 6 6 6 6 6 6 5 5 4 4 4 4 4 3 3 4 3 2 2 2
12 15 15 15 13 13 12 11 11 12 12 12 12 12 12 12 11 12 12 12 11 11 11 12 12 13 12 12 11 10 10 9 11 15 13 10 11 10 10 10 11 11 10 10 11 11 11 11 11 13 12 12 12 13 13 12 12 11 8 6 7 7 7 7 7 7 6 7 7 6 7 6 5 5 5 5 5 4 4 3 4 3 3 3 2
6 10 15 14 13 12 11 11 11 11 12 12 11 12 13 11 11 12 12 12 12 11 11 12 13 13 14 13 13 12 11 11 15 15 16 16 11 10 10 10 10 11 11 11 11 11 11 11 11 11 11 12 13 15 14 14 15 15 15 13 9 8 7 8 8 8 7 7 7 7 7 8 7 6 6 6 5 5 4 4 4 4 4 4 5
6 7 7 11 11 11 11 12 12 12 11 12 12 12 12 12 12 12 12 13 12 12 13 14 13 14 12 14 14 13 13 14 15 16 17 17 15 12 11 11 10 11 11 12 11 10 11 10 10 9 9 11 12 11 13 16 16 16 16 15 15 14 13 10 8 8 8 8 8 8 8 8 7 6 6 6 5 5 4 4 5 5 5 5 4
7 5 6 7 11 11 11 12 12 12 12 12 12 11 12 12 13 13 15 14 12 13 14 14 14 14 14 14 15 15 14 15 16 17 17 18 18 15 11 11 11 11 12 12 12 11 9 9 10 9 9 12 12 12 11 10 14 18 16 15 15 15 15 16 14 12 9 8 9 9 8 7 8 7 6 6 5 6 5 5 5 5 5 5 5
7 7 7 7 7 10 10 12 12 13 12 11 11 12 13 14 15 14 13 12 12 13 14 15 13 13 14 15 14 14 15 15 17 18 18 19 18 15 12 13 12 13 13 12 11 12 11 11 10 10 10 10 10 12 12 12 10 9 10 10 11 13 15 17 17 17 14 11 10 10 9 7 8 8 7 6 6 7 6 7 6 6 6 6 6
8 8 8 8 8 7 11 11 12 12 11 12 11 12 13 13 13 13 12 13 13 13 14 15 14 14 15 15 14 15 15 17 16 19 19 20 19 15 11 12 12 12 12 13 12 12 12 11 12 12 11 10 10 11 11 11 10 9 10 10 11 11 11 12 13 12 11 11 12 13 12 10 9 10 8 7 8 8 7 7 7 6 6 7 7
8 9 8 9 8 9 8 10 12 11 12 11 12 13 13 13 13 13 12 12 12 12 12 13 14 15 15 15 15 16 16 17 17 18 20 19 19 11 11 12 13 13 13 13 12 12 12 12 11 12 12 12 12 14 13 11 10 10 11 11 10 11 11 12 12 11 11 10 11 12 11 11 9 9 8 6 6 6 6 6 5 5 6 6 7
9 9 9 9 9 9 8 9 8 11 12 12 13 14 14 14 13 11 12 13 13 13 13 14 13 14 15 15 16 15 16 16 18 19 19 20 14 10 11 11 12 14 14 13 12 13 12 12 12 11 13 13 14 14 15 13 12 12 11 11 10 11 11 9 13 16 15 14 13 12 12 13 12 12 11 9 7 6 6 6 7 6 7 8 7
9 9 9 9 10 10 8 7 7 8 10 14 13 14 13 12 12 11 13 14 14 14 13 13 13 14 15 16 16 16 16 15 18 19 20 19 17 12 11 11 13 13 13 13 12 11 13 17 14 13 13 14 14 14 15 13 12 13 12 12 12 12 11 10 8 9 17 17 16 15 14 14 13 13 12 11 8 5 7 8 8 6 8 8 8
10 11 10 9 9 8 9 8 7 7 8 10 14 14 13 12 11 11 12 13 13 12 12 12 13 13 15 17 16 17 16 15 17 20 20 20 17 11 11 11 12 13 13 13 13 12 12 13 18 17 15 15 17 14 15 13 12 13 13 12 13 13 12 10 10 9 6 7 9 10 10 12 11 9 10 14 11 10 10 10 8 8 8 8 8
8 9 10 10 9 8 8 8 8 7 7 8 9 12 14 12 12 12 12 12 12 12 12 12 14 13 13 15 14 16 17 15 13 21 20 20 22 13 11 11 14 14 14 13 11 12 13 12 14 19 21 20 17 15 15 17 14 13 12 12 12 14 11 10 10 9 9 8 8 8 9 8 8 8 8 9 9 11 11 10 10 8 8 8 8
10 9 8 9 10 10 8 7 8 8 7 7 8 9 10 14 14 13 13 12 13 13 14 13 14 14 14 14 14 15 15 15 14 20 20 21 22 19 11 14 14 13 12 12 12 13 12 12 13 16 21 21 20 18 16 17 17 13 13 13 13 12 10 10 10 10 10 9 8 8 8 8 8 8 8 7 8 8 9 10 10 9 9 9 9
11 10 10 10 10 10 9 8 8 8 7 6 6 8 7 8 12 13 13 12 13 14 13 13 13 14 13 14 15 15 15 17 14 16 21 22 22 24 15 15 16 13 12 12 13 13 14 13 12 14 18 19 20 19 19 17 18 12 15 16 15 14 12 10 10 9 8 8 8 8 8 8 8 8 8 8 8 8 9 9 10 11 10 10 9
11 11 10 10 9 10 10 9 8 7 7 7 9 8 8 12 13 13 13 14 14 14 14 13 13 14 13 13 13 14 14 12 18 14 19 22 22 22 24 19 17 14 14 14 15 14 13 13 14 15 15 17 18 19 18 19 15 14 19 18 16 16 12 9 9 9 9 9 10 10 9 9 9 8 8 8 8 8 8 8 9 10 10 9 9
11 11 10 10 10 9 10 10 9 8 8 8 8 9 10 11 12 12 13 14 14 13 13 12 13 14 15 14 13 13 12 12 13 19 16 21 21 23 24 25 19 15 16 15 14 14 13 14 13 15 15 17 18 17 18 18 14 18 18 19 17 14 8 9 8 9 9 11 11 11 11 10 9 9 9 8 8 7 8 8 9 10 9 8 8
11 11 10 10 10 9 10 10 10 8 8 9 10 8 10 12 12 12 12 14 15 15 14 14 16 16 14 14 14 13 13 12 12 14 20 19 22 23 24 24 23 21 17 17 15 14 14 15 15 15 15 16 17 16 15 17 19 18 17 17 14 8 9 9 10 9 11 12 11 11 12 11 10 9 8 7 7 6 6 7 6 6 6 6 6
12 11 11 10 10 10 11 11 11 10 9 8 10 9 10 10 11 11 13 14 15 15 15 16 16 17 17 16 15 13 12 11 12 11 11 16 17 22 24 23 24 24 22 18 19 18 16 14 16 16 15 14 11 9 8 10 16 18 17 14 9 10 9 10 9 12 13 12 12 12 11 9 9 8 7 7 7 9 8 8 8 7 7 8 9
11 11 11 10 10 9 11 9 9 9 9 8 9 10 9 9 10 10 12 13 14 15 16 16 16 17 17 16 15 15 14 12 12 12 11 10 10 12 14 15 20 19 15 15 16 12 13 12 10 11 12 15 16 14 13 12 9 8 8 9 10 10 10 10 10 10 10 10 11 10 9 9 7 7 9 8 8 8 9 8 9 11 9 8 9
10 11 13 12 10 9 9 12 11 9 8 7 8 10 11 11 10 11 12 12 14 15 16 16 15 15 14 14 14 13 13 12 13 13 13 11 10 11 11 11 11 11 13 12 11 13 13 12 12 10 9 8 9 8 9 9 9 9 9 9 10 11 12 12 11 10 11 11 11 11 11 10 11 10 10 10 10 10 9 9 9 9 9 9 9
11 12 11 11 11 8 8 11 10 9 9 8 8 9 11 11 11 11 13 13 14 15 15 16 15 13 13 13 12 12 12 13 14 13 13 13 13 11 11 11 10 9 15 15 9 8 9 10 10 10 10 11 10 10 10 10 10 11 11 10 10 10 10 10 11 12 12 12 13 12 12 11 11 10 10 10 10 9 8 8 8 9 8 9 11
12 11 9 10 11 10 9 9 10 10 9 9 10 11 12 15 14 13 13 12 15 17 12 12 13 12 14 14 12 13 13 14 16 15 16 17 17 17 15 14 14 13 13 15 12 10 10 12 13 13 13 12 13 12 12 11 11 11 11 12 11 11 11 11 11 11 10 11 11 10 10 10 11 9 9 10 9 7 7 7 8 9 9 10 9
11 10 9 9 10 11 11 10 10 10 9 10 10 12 12 12 15 19 19 18 19 22 24 26 24 20 14 14 15 16 17 17 13 8 12 15 17 16 16 15 15 17 12 10 9 12 11 12 13 13 13 12 12 13 11 11 12 11 11 11 11 12 11 11 11 10 11 11 11 11 10 10 10 10 13 12 10 8 7 8 10 8 11 10 11
9 9 10 9 11 11 10 11 12 11 10 8 9 9 11 12 12 12 17 18 18 21 22 24 26 24 24 20 15 12 14 17 18 11 13 15 17 17 17 17 15 15 15 17 10 11 12 12 12 13 12 12 13 11 11 11 11 11 10 11 11 11 12 12 11 11 10 10 10 10 11 13 14 13 13 12 10 10 9 10 11 11 11 11 11
11 11 11 10 10 10 11 11 10 9 10 10 10 10 10 9 11 13 10 14 19 21 21 22 23 24 23 22 21 19 19 12 7 11 14 14 16 17 17 16 15 12 13 10 12 11 11 11 12 11 11 12 11 11 11 12 11 11 11 11 11 11 11 12 12 11 10 10 10 13 13 14 13 13 13 12 8 10 9 10 10 10 10 11 11
12 10 8 8 9 8 9 10 10 10 10 10 10 10 10 10 11 11 12 14 12 12 16 21 22 20 20 20 19 19 19 20 17 11 13 15 14 14 13 7 5 12 14 12 11 12 11 11 12 12 11 11 11 11 11 11 10 10 10 11 12 11 10 9 9 10 12 12 12 14 13 13 12 13 12 12 9 10 11 12 10 10 10 11 10
11 13 21 16 10 10 10 10 11 11 11 9 10 10 11 11 11 11 12 12 12 13 13 11 12 16 16 15 17 19 19 18 19 16 12 13 12 9 10 5 5 5 7 9 10 11 11 11 11 11 11 11 11 10 11 11 10 11 11 11 11 11 10 10 13 13 13 12 13 14 14 14 14 13 10 10 11 12 12 10 10 11 12 11 10
12 10 9 12 11 9 9 10 11 12 11 10 10 11 10 10 11 11 11 12 13 15 14 12 11 10 16 17 17 16 15 14 14 15 14 14 12 17 9 9 9 9 10 11 12 12 12 12 12 11 10 11 10 10 11 11 11 11 11 11 11 11 10 10 11 12 11 12 13 14 13 13 13 12 13 11 14 14 12 11 11 11 12 12 12
12 11 9 8 9 9 9 10 12 13 11 10 9 10 11 11 10 10 10 11 12 13 12 12 12 12 5 5 9 10 9 10 13 14 13 12 17 15 11 12 12 11 10 10 11 11 11 12 12 11 10 11 10 10 10 10 10 10 11 11 10 10 10 9 10 11 12 14 14 13 13 13 13 13 13 14 13 13 12 11 11 11 12 15 13
13 10 9 9 8 10 10 9 9 10 12 10 10 10 11 11 10 10 11 12 12 12 11 11 11 12 12 9 5 4 3 4 8 7 6 7 7 9 11 12 12 11 11 11 11 12 12 12 11 11 11 10 11 11 11 11 10 11 11 10 10 11 11 10 10 12 13 13 13 12 11 13 12 12 11 13 13 11 11 11 12 13 11 13 13
9 13 15 17 12 10 9 10 12 12 13 11 10 9 9 11 10 9 11 12 11 12 12 12 11 12 11 7 6 7 9 5 6 7 7 8 9 10 11 12 13 13 13 12 10 11 11 10 10 10 10 10 10 10 10 10 10 10 10 10 10 10 11 11 13 14 12 13 12 13 13 13 13 12 11 12 13 12 12 11 12 13 13 14 16
10 9 9 11 8 9 8 10 10 11 10 9 9 9 10 10 10 11 11 11 12 12 11 11 11 10 8 8 5 7 6 6 7 7 8 9 9 10 10 12 13 14 13 12 11 10 10 10 9 9 10 9 9 8 8 9 9 9 9 9 9 9 10 11 12 14 11 10 12 13 12 12 11 11 12 12 12 11 12 12 11 11 14 14 13
9 9 9 7 8 9 10 10 9 9 8 8 8 9 9 9 10 11 11 13 14 12 11 11 11 10 8 6 9 11 7 6 6 7 7 8 9 9 11 11 12 12 12 11 9 9 10 10 9 9 8 9 11 9 8 8 9 9 10 12 12 13 11 11 13 10 5 8 10 11 10 11 11 11 12 11 8 10 10 9 8 9 10 10 8
9 8 8 8 8 9 9 9 8 9 9 9 8 8 8 9 10 9 10 11 11 11 11 10 8 8 7 9 11 15 8 6 6 6 6 7 7 8 9 9 9 9 9 8 7 7 7 7 7 7 8 9 9 9 11 13 12 13 14 14 14 13 12 12 9 8 9 11 11 11 11 11 10 10 9 8 9 9 8 7 7 6 5 3 3
10 9 8 8 8 7 7 7 6 7 7 8 8 8 9 9 8 9 10 10 10 10 10 10 9 9 7 4 8 9 7 7 7 7 8 9 9 8 8 8 8 7 4 1 1 2 5 8 8 8 9 9 10 11 13 14 13 14 15 14 11 10 9 8 7 8 9 10 10 10 10 10 9 9 8 8 7 6 7 7 6 6 7 8 9
8 7 7 7 6 6 6 6 7 7 7 9 9 8 8 7 7 9 10 9 9 8 8 9 9 9 8 3 3 5 6 6 7 8 4 0 1 2 3 4 4 3 2 2 2 3 4 4 3 3 3 3 1 3 8 8 10 13 13 12 11 10 9 10 9 10 10 10 9 9 9 9 8 7 7 7 7 8 9 10 10 10 9 9 9
6 7 6 5 5 5 5 6 7 7 8 7 7 7 7 6 7 8 8 9 8 7 7 7 6 6 5 2 1 1 1 0 3 5 5 4 4 5 5 5 5 5 4 3 4 4 4 3 2 1 2 1 2 2 4 4 5 7 10 11 10 10 10 8 8 8 10 9 5 5 5 6 7 8 9 10 11 12 12 10 9 8 8 8 9
5 5 4 4 5 5 5 5 6 7 7 6 7 6 5 5 6 7 7 6 5 4 3 4 4 5 5 6 6 7 7 7 6 7 7 7 7 6 6 6 6 6 6 6 6 5 5 5 3 1 1 2 3 3 3 4 4 5 5 5 5 5 3 3 2 1 3 5 6 7 7 9 9 8 9 9 10 11 11 10 8 9 9 9 8
5 3 3 4 4 4 5 5 6 5 5 6 5 5 4 4 4 5 5 5 4 4 5 5 5 6 6 7 8 8 8 8 8 7 8 9 8 7 7 7 7 7 7 7 7 7 7 7 6 5 4 4 4 4 5 5 4 4 4 4 3 1 1 2 3 4 5 6 6 6 6 5 5 5 6 5 6 5 5 6 7 9 8 8 8
4 3 3 3 2 2 3 4 5 5 5 4 4 3 3 3 3 4 4 4 5 5 6 6 7 7 8 9 9 9 9 9 9 9 8 9 9 9 9 9 9 8 8 8 9 8 8 7 7 7 7 7 7 6 6 5 5 5 4 3 2 2 3 4 5 5 6 8 8 8 8 8 9 9 9 9 10 7 8 7 7 6 6 9 9
2 2 2 1 1 0 2 3 3 3 3 3 2 2 3 3 4 4 5 5 6 6 6 6 7 8 9 10 10 9 9 10 11 11 11 10 9 9 10 10 10 10 10 11 10 10 9 9 9 8 7 7 7 7 7 7 7 6 6 5 6 9 9 8 7 7 9 9 9 10 10 10 9 8 8 8 8 8 9 8 8 7 7 9 8
3 2 1 1 1 1 1 1 1 1 1 1 1 3 3 4 4 5 5 6 7 7 7 7 8 8 9 10 10 10 10 11 11 11 10 9 9 10 10 11 12 11 10 10 10 10 8 10 12 11 10 9 10 10 9 7 7 7 7 7 13 15 15 15 14 12 10 8 10 10 11 11 11 11 10 9 9 10 11 9 7 7 8 8 9
5 5 3 2 2 2 2 1 1 2 3 3 4 4 4 4 4 5 6 7 7 7 7 8 9 10 10 10 11 11 10 11 11 11 13 13 10 9 10 11 12 11 9 9 9 9 10 10 10 10 11 10 9 9 8 8 8 8 13 17 19 18 19 17 13 14 16 12 10 10 11 12 12 12 11 10 10 11 10 9 8 7 6 7 8
Wind_Direction
193 193 191 195 193 191 193 193 198 200 202 199 200 200 200 203 204 209 194 201 196 201 204 208 209 212 214 212 213 208 206 208 205 207 213 221 227 233 234 219 226 232 228 234 234 232 239 250 254 254 251 264 268 270 270 258 243 249 240 237 253 225 221 245 276 289 292 266 281 292 315 312 319 314 329 339 343 346 334 351 352 6 4 1 37
196 193 193 195 197 197 200 198 198 200 202 201 203 202 202 200 198 192 200 202 199 204 204 206 209 210 214 213 212 211 206 205 211 209 214 219 226 226 230 225 228 236 235 235 231 232 234 242 249 246 234 247 259 261 261 259 253 253 238 242 251 253 216 248 266 281 294 289 281 299 294 265 313 329 333 329 337 334 341 345 4 12 12 2 351
202 194 194 195 197 199 198 198 195 198 202 205 207 207 204 201 192 197 207 208 203 208 205 207 203 205 214 213 209 213 209 212 211 211 214 216 223 231 233 230 232 236 235 236 238 236 236 240 247 247 235 241 242 251 255 254 261 262 264 258 256 259 225 221 255 273 289 296 297 294 302 304 306 321 321 313 301 312 327 349 359 16 18 4 354
222 210 203 203 202 200 199 202 200 201 205 208 210 210 207 201 193 201 205 209 204 206 208 206 201 202 212 213 212 213 210 212 213 211 213 216 220 224 227 228 234 238 241 244 243 240 242 246 250 248 243 245 247 248 244 245 248 251 255 250 245 256 253 225 230 263 281 289 294 293 306 309 304 306 310 301 304 332 334 340 353 16 12 7 6
211 215 210 213 210 207 206 204 204 205 207 209 210 209 208 203 196 201 204 210 211 204 203 204 204 204 212 215 213 212 212 211 213 217 217 216 218 223 226 227 231 235 238 239 240 242 245 249 253 247 237 245 249 245 243 234 240 248 253 251 246 247 241 236 238 240 262 275 288 289 285 281 282 289 297 311 318 313 314 332 351 9 10 357 342
203 203 203 209 211 211 209 207 207 206 207 210 210 209 207 206 201 198 202 206 206 208 204 204 207 209 212 212 212 212 209 209 212 218 220 219 218 222 224 227 232 236 239 240 240 238 242 245 246 243 241 242 251 253 247 242 240 242 248 250 251 249 247 246 239 243 253 267 277 287 281 289 298 293 288 292 309 315 308 327 316 11 359 0 17
214 215 211 209 209 210 208 208 207 207 207 209 209 208 209 207 207 204 200 205 204 208 209 208 209 213 214 212 214 211 208 209 210 212 218 220 219 220 226 227 231 233 237 241 243 241 243 245 244 241 241 239 245 249 247 243 241 245 242 245 246 245 253 256 248 250 256 265 270 271 281 276 268 294 272 278 279 264 299 319 321 34 346 342 332
216 217 213 213 213 212 211 208 207 208 208 207 208 209 209 209 209 208 201 201 207 208 210 209 210 213 216 216 217 213 209 210 209 211 213 215 216 220 222 228 232 233 237 237 240 243 242 243 245 242 239 237 238 242 243 246 242 247 241 235 235 240 253 256 254 255 258 262 266 277 278 285 275 263 264 256 270 257 258 311 308 317 320 301 283
216 213 210 212 212 212 209 210 208 205 203 203 204 208 209 209 207 205 200 204 210 213 213 214 213 214 217 216 217 216 218 218 216 211 211 212 216 221 221 224 228 233 237 238 236 236 238 242 243 244 238 233 233 237 245 246 248 251 245 227 228 234 241 248 249 250 253 258 266 264 266 267 270 269 270 269 280 299 301 284 285 281 296 287 229
224 216 215 210 209 205 202 202 204 203 202 205 205 206 209 208 206 205 208 208 209 210 212 213 215 216 216 215 215 217 218 220 214 210 209 213 212 219 220 223 226 230 233 236 239 236 235 238 242 238 236 231 231 232 234 236 237 248 254 235 226 229 233 240 243 242 247 254 257 263 266 265 266 264 275 278 277 263 267 256 273 295 289 292 281
318 235 222 218 212 206 201 202 206 205 204 205 203 205 208 209 209 207 208 208 209 204 205 211 217 221 220 219 217 218 221 222 214 207 210 215 219 218 217 221 221 224 229 233 237 239 240 238 242 233 223 229 236 233 232 229 230 234 241 247 250 241 238 237 240 240 244 251 255 253 257 263 263 271 270 281 280 275 278 275 273 278 289 305 311
341 333 269 229 213 203 205 207 208 210 207 208 207 206 204 206 208 207 208 211 206 208 210 213 215 218 220 221 222 222 224 223 212 208 209 212 215 223 227 229 229 225 228 231 234 238 240 241 239 239 232 231 235 231 225 226 229 230 233 236 237 241 244 245 245 244 241 247 251 251 259 258 264 258 267 275 278 273 260 260 255 267 277 279 282
347 337 329 279 232 212 208 207 208 211 209 208 208 204 204 208 212 213 213 213 211 207 212 211 212 213 219 220 224 224 228 218 208 208 209 211 212 218 233 235 231 231 230 228 231 234 236 237 241 237 240 220 225 237 240 230 219 225 231 234 239 237 237 240 246 250 258 254 254 257 249 257 260 259 256 267 270 274 271 258 253 253 256 265 269
345 348 346 336 274 230 213 212 213 213 209 207 205 206 209 212 215 216 216 211 208 210 213 214 215 213 216 220 222 226 229 221 203 206 209 210 210 208 228 232 235 238 236 234 233 233 231 232 235 237 237 231 224 227 232 237 237 223 221 227 235 235 229 232 238 242 244 252 258 259 256 245 254 259 259 249 250 262 266 268 269 265 259 263 284
352 354 354 349 348 279 225 216 220 214 210 208 206 210 211 216 215 216 216 213 210 211 216 217 217 215 217 219 223 227 230 224 201 203 207 209 209 204 221 228 235 240 238 236 235 235 234 232 233 238 239 234 225 220 228 231 231 233 232 231 231 238 236 229 226 227 226 230 239 247 254 255 254 256 255 248 248 253 261 269 275 279 281 292 278
355 353 351 353 349 352 324 250 225 218 215 210 211 213 215 213 212 211 216 220 221 220 217 220 220 219 220 222 225 230 234 218 202 202 205 208 204 202 216 223 230 235 236 235 234 233 234 234 235 235 238 240 228 211 219 232 238 236 234 236 240 240 241 233 227 226 231 228 229 239 247 252 256 259 267 269 264 260 259 252 251 253 264 264 266
354 349 348 342 344 341 335 341 308 243 220 214 214 216 216 216 216 212 216 221 223 221 220 219 221 223 221 218 221 228 233 216 200 203 204 203 193 207 212 220 227 231 235 235 232 232 232 232 229 236 238 238 233 210 210 215 237 240 240 241 244 247 247 239 209 216 222 231 240 245 253 260 263 262 262 263 259 282 275 269 256 245 253 262 260
346 343 334 336 332 326 328 321 320 319 264 230 221 221 220 220 220 212 217 221 225 227 225 225 224 224 223 223 220 225 232 218 197 203 203 196 192 202 209 215 225 227 233 231 230 230 231 228 228 232 236 239 233 211 204 199 226 235 239 242 244 245 246 246 243 207 211 222 228 236 242 248 254 260 263 256 232 222 232 245 258 258 259 257 266
341 335 330 326 317 316 317 313 317 301 308 281 246 235 227 224 222 215 220 224 230 232 230 231 230 228 227 227 222 225 235 227 196 203 202 195 194 207 208 216 223 229 229 232 228 231 235 229 224 228 233 236 232 213 199 194 221 229 233 239 243 246 246 247 243 246 208 205 222 228 238 237 240 240 239 236 209 205 226 240 257 254 255 260 268
329 322 323 320 317 313 302 305 296 300 294 292 295 256 240 235 222 216 221 225 230 231 231 231 233 232 231 229 229 226 233 237 203 199 198 197 195 202 209 210 225 226 227 230 231 229 231 236 224 217 225 232 233 220 202 197 215 227 231 236 240 243 247 245 243 245 242 233 239 224 231 234 227 220 224 224 196 201 217 226 237 243 246 254 260
323 322 316 315 314 304 300 292 294 292 286 289 291 296 264 242 234 228 225 227 229 231 231 233 234 237 236 234 234 231 231 230 216 192 198 196 197 199 208 215 221 224 225 224 227 233 233 231 239 216 212 221 226 225 212 204 211 224 228 233 233 241 248 252 249 233 246 246 245 245 245 239 238 240 234 226 215 197 204 216 226 233 236 250 258
317 319 316 313 309 307 301 294 288 287 293 291 289 288 312 294 258 232 228 226 226 228 229 230 234 238 238 236 235 235 230 220 230 192 196 197 197 197 209 218 217 219 224 229 229 232 232 234 232 222 206 211 218 222 219 210 211 219 230 231 235 238 243 249 259 259 252 250 248 247 245 242 242 241 238 233 228 217 209 209 213 229 232 241 252
314 312 313 310 306 304 300 298 297 296 281 274 270 260 251 245 242 242 234 227 224 226 225 225 231 237 240 239 237 235 233 225 214 213 195 198 196 199 209 220 212 213 227 230 227 230 230 233 236 228 210 208 212 217 218 216 212 222 230 233 233 237 240 249 255 256 255 257 260 261 259 255 250 245 240 238 234 226 220 223 222 219 226 232 239
310 309 308 306 308 306 306 302 300 303 299 279 270 275 269 265 258 236 234 235 233 227 227 226 229 234 237 238 237 236 232 232 205 207 202 195 198 200 208 218 214 215 222 233 231 229 230 229 231 225 214 212 213 215 217 214 217 220 224 232 235 237 239 243 244 244 251 258 256 256 258 256 252 246 243 240 241 232 232 238 235 231 223 226 227
308 307 304 305 306 309 306 301 300 299 298 292 281 269 264 260 254 248 236 234 236 235 235 236 238 238 236 237 239 237 234 228 230 202 202 194 199 202 208 212 218 216 221 231 234 233 231 229 231 226 222 217 215 216 222 222 221 223 222 226 230 235 230 232 239 238 250 250 251 252 253 248 243 244 243 239 237 230 228 239 238 231 229 223 229
302 303 301 297 300 303 304 300 295 295 293 288 282 267 261 257 252 247 242 241 236 234 237 238 239 241 245 244 241 237 231 231 231 220 190 202 201 204 206 209 215 216 220 231 229 230 231 226 226 226 225 223 214 213 216 218 215 218 223 221 222 226 226 226 226 238 245 248 248 248 244 240 237 238 238 240 244 252 255 249 239 227 214 225 232
292 297 296 295 294 295 300 295 294 294 294 291 285 281 267 258 261 263 252 245 242 241 238 238 239 241 243 244 243 244 241 232 231 228 214 197 199 200 206 217 220 219 223 234 238 239 237 237 234 227 231 223 219 221 224 227 215 210 216 213 217 219 218 218 222 223 227 231 238 235 235 244 246 248 256 250 249 251 247 243 244 250 240 228 226
286 290 293 293 291 294 294 292 289 286 289 288 288 283 273 261 253 251 252 249 246 242 241 240 237 234 236 236 238 236 233 232 230 226 221 212 198 190 195 200 199 197 211 219 218 228 234 230 230 237 232 239 229 227 227 221 218 211 209 205 211 216 220 220 222 233 238 241 247 251 255 253 256 254 253 251 252 253 243 240 238 242 234 225 226
283 282 287 291 289 287 289 291 286 286 287 283 272 269 272 274 266 258 252 252 253 250 247 249 243 239 231 232 229 226 229 231 230 219 215 207 200 197 194 198 200 198 210 204 196 218 224 229 230 223 226 230 230 226 220 212 215 217 215 210 211 210 210 208 215 223 227 230 237 239 245 248 246 246 248 253 255 246 236 231 225 235 226 221 232
285 282 280 279 285 290 291 291 289 286 287 287 288 280 265 253 255 264 269 271 285 295 300 276 270 261 255 245 231 228 224 226 231 216 209 211 213 212 216 208 203 212 208 190 207 223 218 227 229 230 229 227 230 229 225 219 217 217 217 213 216 220 216 213 217 219 212 213 220 223 226 233 241 235 246 252 248 231 223 214 223 222 213 214 215
279 280 282 281 288 293 295 294 288 282 282 282 284 285 287 271 239 237 244 253 262 268 273 274 277 276 272 271 256 237 244 257 262 232 211 217 218 216 220 216 203 212 178 142 194 217 226 223 227 229 230 229 228 229 226 223 222 220 220 215 215 221 220 222 220 216 213 214 219 222 223 234 239 245 254 251 244 227 215 201 221 216 217 215 213
268 268 274 275 285 286 288 285 283 282 282 277 275 276 279 282 280 236 230 242 244 248 251 255 258 257 257 252 256 265 241 237 244 219 206 210 212 213 215 214 209 200 178 171 197 213 219 225 228 228 225 226 226 228 228 228 228 225 223 222 222 218 216 219 211 212 214 217 216 225 227 240 244 245 244 243 232 231 222 208 209 214 216 214 213
262 266 268 271 275 276 276 277 274 270 272 274 273 270 270 274 282 294 266 219 232 243 246 247 249 253 249 249 243 239 252 263 261 226 215 213 211 213 213 209 206 182 144 179 215 219 219 221 230 229 225 227 225 226 226 228 230 229 224 223 225 223 218 220 210 218 221 223 226 238 238 237 236 236 237 234 212 217 214 212 209 209 209 211 218
262 261 259 253 257 261 265 268 264 263 260 261 267 280 285 286 289 290 293 297 282 253 241 242 246 247 249 244 241 239 239 245 250 232 217 221 214 210 199 195 136 166 184 202 205 219 218 223 226 228 228 227 227 225 226 225 225 226 226 227 232 233 228 216 209 215 232 232 227 234 235 233 229 227 228 226 209 215 219 215 206 206 208 209 211
258 260 262 265 264 263 263 262 260 262 269 276 280 281 279 283 286 286 288 288 289 285 289 271 233 218 235 242 235 234 236 235 236 229 214 217 214 175 135 140 161 197 226 235 223 220 222 221 224 220 220 223 222 222 226 226 226 226 230 233 235 234 231 227 236 235 227 225 227 229 230 228 227 224 221 218 219 217 217 209 205 205 210 209 212
262 257 255 260 264 263 262 264 271 276 279 278 280 280 281 282 278 277 276 274 276 280 282 273 278 259 230 237 241 235 230 233 235 224 211 200 173 147 179 204 205 205 203 206 214 219 220 223 222 221 215 222 222 224 226 229 228 230 230 231 231 230 230 230 226 231 225 228 230 230 227 226 226 222 222 221 218 215 210 205 208 207 211 212 214
262 259 255 254 258 261 263 268 276 284 289 286 281 278 279 274 271 271 268 266 265 269 270 279 280 276 239 238 240 245 223 210 215 213 207 191 173 179 208 205 211 206 202 204 206 214 217 222 222 224 222 220 223 226 226 225 225 226 228 229 231 230 231 229 228 226 226 229 231 227 224 226 223 221 219 219 216 215 214 207 207 207 207 211 205
259 258 255 255 254 256 261 268 276 281 279 273 269 269 269 270 267 268 268 267 267 267 266 268 266 267 269 268 170 201 121 109 111 104 111 120 164 208 216 223 217 212 206 208 201 205 214 219 217 220 224 225 225 228 228 227 221 223 225 222 222 228 225 230 219 228 231 232 233 228 222 225 222 220 214 221 220 215 212 207 208 215 212 209 208
257 250 249 252 253 262 273 279 279 277 275 272 270 268 266 271 270 266 267 270 266 259 258 259 254 258 258 250 154 144 130 167 190 201 184 189 195 203 213 218 223 224 222 215 204 203 216 216 214 212 215 218 221 219 220 227 226 225 221 221 225 225 218 226 239 240 232 233 231 228 223 221 220 217 214 217 221 219 213 209 209 213 219 219 218
258 262 255 251 261 262 263 265 269 270 270 272 269 270 274 272 272 273 273 271 264 260 258 261 262 261 257 250 167 163 189 207 213 209 200 192 200 204 212 217 220 223 219 217 215 211 210 216 210 203 206 210 214 214 214 226 235 238 234 232 233 230 227 229 243 247 237 225 229 229 225 220 218 216 217 218 219 216 215 212 204 206 216 221 220
261 261 259 258 267 275 272 268 262 258 262 266 274 276 274 273 271 270 270 268 270 269 261 260 261 264 262 242 182 184 200 214 214 217 214 204 199 200 209 217 221 226 227 224 214 213 213 215 209 204 209 213 222 218 216 219 226 232 237 240 240 241 241 243 245 240 204 217 225 225 219 215 213 212 218 219 210 215 217 213 208 213 216 218 211
260 261 265 268 263 267 270 268 267 273 278 280 279 275 274 272 273 273 269 271 275 275 272 266 262 260 246 204 200 192 203 229 233 227 223 217 205 210 210 217 222 225 230 222 207 196 206 207 201 202 214 217 216 219 225 231 234 238 243 244 243 240 239 237 229 216 217 216 210 206 208 211 211 211 212 205 209 211 209 207 209 204 217 180 111
264 265 270 274 274 271 273 274 279 280 276 272 272 274 276 278 278 274 272 269 266 265 270 269 264 256 237 187 206 191 209 223 228 234 240 241 237 227 223 227 235 244 254 293 15 224 218 223 215 208 213 222 219 221 224 230 231 235 240 242 241 236 226 228 224 219 216 213 205 196 201 208 205 206 208 208 209 188 179 162 154 164 162 152 154
264 269 272 273 274 276 273 276 275 275 274 276 280 278 276 277 278 276 274 271 268 265 261 261 263 261 249 176 163 184 213 215 222 226 224 56 33 26 26 25 30 24 6 346 306 286 274 258 228 219 243 267 342 259 239 237 233 230 231 232 231 229 228 222 212 212 208 201 197 189 199 204 198 204 204 193 182 170 170 171 175 176 159 156 160
264 263 266 274 274 274 273 276 275 276 277 282 278 280 283 284 282 283 281 277 279 282 282 288 303 296 281 229 235 256 252 230 48 49 51 45 45 34 28 28 32 36 31 19 358 343 330 334 317 250 242 298 329 275 261 279 280 254 244 239 237 231 222 211 202 200 201 195 159 164 173 172 182 184 186 188 194 190 182 173 164 147 148 149 151
246 244 252 265 271 272 277 277 277 278 282 280 283 290 300 300 300 300 296 299 311 320 335 3 18 44 52 57 56 55 51 48 47 45 44 42 37 32 26 26 31 37 36 29 19 17 17 15 20 11 291 331 335 341 345 344 333 328 332 319 287 261 240 202 177 112 80 113 160 175 179 189 192 189 182 178 180 180 171 161 149 148 148 149 145
237 236 241 247 253 272 278 281 281 284 284 280 287 299 308 312 321 320 319 342 360 18 31 41 51 53 58 66 69 69 68 67 62 57 55 50 46 39 33 30 33 35 35 35 33 33 31 31 31 35 34 35 28 27 23 19 20 22 21 15 360 339 319 61 78 114 140 141 130 132 148 138 127 137 145 132 138 116 113 117 125 130 140 133 121
227 221 226 232 250 276 277 282 284 286 283 287 308 319 327 348 353 357 360 5 24 40 43 49 56 63 68 68 70 73 74 73 71 68 63 57 53 50 47 43 39 36 39 39 39 37 33 31 33 36 40 38 37 34 31 35 36 32 29 32 42 72 95 117 118 117 131 129 129 121 121 119 126 121 119 124 124 110 96 92 80 76 92 108 109
207 179 192 216 193 263 291 286 289 282 291 308 317 340 18 34 35 39 40 40 45 52 55 57 63 68 70 72 73 72 74 77 78 75 70 64 58 54 56 53 49 47 49 48 44 42 39 37 38 36 33 33 33 36 40 41 41 46 53 58 53 64 73 87 100 97 99 104 99 102 97 92 86 86 87 90 94 94 96 95 98 95 87 84 81
144 123 131 134 127 97 25 323 268 298 13 89 70 67 65 60 58 58 54 54 55 57 60 63 64 67 73 74 73 73 73 75 75 72 69 65 63 65 61 58 55 49 46 45 44 42 40 41 45 44 41 40 42 43 46 38 34 35 35 44 55 62 65 64 60 71 86 86 88 94 99 98 96 93 86 83 85 86 83 81 74 77 84 88 88
113 94 90 88 93 86 92 86 76 99 114 106 91 86 78 71 63 61 62 62 62 59 61 64 69 70 71 74 77 75 74 74 75 75 74 71 66 65 65 63 59 52 42 38 35 39 44 47 45 41 42 38 37 39 34 37 41 51 57 57 56 56 55 54 57 52 62 71 77 80 84 88 89 89 90 87 86 83 86 88 87 86 78 86 89